Temp
-27 -27 -27 -27 -27 -27 -27 -26 -26 -26 -26 -25 -25 -25 -25 -25 -25 -25 -25 -25 -26 -26 -26 -26 -26 -26 -26 -26 -26 -26 -26 -26 -25 -25 -25 -25 -25 -25 -25 -25 -25 -26 -26 -26 -26 -26 -26 -26 -25 -25 -25 -25 -25 -25 -25 -25 -25 -25 -24 -24 -24 -24 -24 -24 -24 -24 -24 -23 -23 -22 -22 -22 -21 -21
-28 -28 -28 -27 -27 -27 -27 -27 -27 -26 -26 -26 -26 -26 -26 -26 -26 -26 -26 -26 -26 -26 -26 -26 -26 -26 -26 -26 -26 -26 -26 -26 -26 -25 -25 -25 -25 -25 -25 -25 -26 -26 -26 -26 -26 -26 -26 -26 -26 -25 -25 -25 -25 -25 -25 -25 -25 -25 -25 -25 -25 -25 -24 -24 -25 -25 -26 -25 -25 -24 -24 -23 -22 -22
-28 -28 -28 -28 -28 -27 -27 -27 -27 -27 -26 -26 -26 -26 -26 -26 -26 -26 -26 -26 -26 -26 -26 -26 -26 -26 -27 -26 -26 -26 -26 -26 -26 -26 -26 -26 -26 -25 -25 -26 -26 -26 -26 -26 -26 -26 -26 -26 -26 -26 -25 -25 -25 -25 -25 -25 -25 -25 -25 -25 -25 -26 -26 -26 -26 -27 -28 -28 -27 -26 -25 -25 -24 -23
-28 -28 -28 -28 -28 -28 -27 -27 -27 -27 -27 -27 -26 -26 -26 -26 -26 -26 -26 -26 -26 -26 -26 -26 -26 -26 -26 -26 -26 -26 -26 -26 -26 -26 -26 -26 -26 -25 -25 -26 -26 -26 -27 -27 -27 -26 -26 -26 -26 -26 -26 -26 -26 -26 -26 -26 -26 -26 -26 -26 -26 -27 -27 -28 -29 -29 -29 -30 -29 -28 -27 -27 -26 -25
-29 -29 -28 -28 -28 -28 -28 -28 -27 -27 -27 -27 -27 -26 -26 -26 -27 -27 -27 -27 -26 -26 -26 -26 -27 -27 -27 -27 -27 -27 -27 -26 -27 -27 -27 -26 -26 -26 -26 -26 -26 -27 -27 -27 -27 -27 -27 -26 -26 -26 -26 -26 -26 -26 -26 -26 -26 -26 -27 -27 -28 -29 -29 -30 -30 -31 -31 -30 -30 -30 -29 -28 -28 -27
-29 -29 -29 -28 -28 -28 -28 -28 -28 -27 -27 -27 -27 -27 -27 -27 -27 -27 -27 -27 -27 -27 -27 -27 -27 -27 -27 -27 -27 -27 -27 -27 -27 -27 -27 -27 -26 -26 -26 -26 -26 -27 -27 -27 -27 -27 -27 -27 -27 -26 -26 -26 -26 -26 -26 -27 -27 -27 -28 -28 -29 -30 -31 -31 -31 -31 -31 -31 -31 -31 -30 -29 -29 -28
-29 -29 -29 -29 -29 -28 -28 -28 -28 -28 -27 -28 -28 -27 -27 -27 -27 -27 -27 -27 -27 -26 -26 -27 -27 -27 -27 -27 -27 -27 -27 -27 -27 -27 -27 -27 -26 -26 -26 -27 -27 -27 -27 -27 -27 -27 -27 -27 -27 -27 -26 -26 -27 -27 -27 -27 -28 -28 -29 -30 -31 -32 -32 -32 -32 -32 -32 -31 -31 -31 -31 -30 -30 -29
-29 -29 -29 -29 -29 -29 -29 -29 -28 -28 -28 -28 -28 -28 -28 -27 -27 -27 -27 -27 -27 -27 -27 -27 -27 -27 -27 -27 -27 -27 -27 -27 -27 -27 -27 -27 -26 -27 -27 -27 -27 -28 -28 -28 -27 -27 -27 -27 -27 -27 -27 -27 -27 -27 -28 -28 -29 -30 -30 -31 -32 -32 -32 -32 -32 -32 -32 -32 -32 -32 -31 -31 -30 -30
-30 -30 -29 -29 -29 -29 -29 -29 -28 -28 -28 -28 -28 -28 -28 -28 -28 -28 -27 -27 -27 -27 -27 -27 -27 -27 -27 -27 -27 -27 -27 -27 -27 -27 -27 -27 -27 -27 -27 -28 -28 -28 -28 -28 -28 -28 -27 -27 -27 -27 -27 -27 -28 -28 -29 -29 -30 -31 -32 -32 -32 -32 -32 -32 -32 -32 -32 -32 -32 -32 -32 -31 -31 -30
-30 -30 -30 -29 -29 -29 -29 -29 -28 -28 -28 -28 -28 -28 -28 -28 -28 -28 -28 -28 -27 -27 -27 -27 -27 -27 -27 -27 -27 -27 -27 -27 -26 -27 -27 -27 -27 -28 -28 -28 -28 -28 -28 -28 -28 -28 -28 -27 -27 -27 -27 -28 -28 -29 -30 -30 -31 -32 -32 -32 -32 -33 -33 -32 -32 -32 -32 -32 -32 -32 -32 -32 -31 -31
-30 -30 -30 -30 -30 -29 -29 -29 -29 -28 -28 -28 -28 -28 -28 -28 -28 -28 -28 -28 -28 -27 -27 -27 -27 -27 -27 -27 -27 -27 -27 -27 -27 -27 -27 -27 -28 -28 -28 -28 -28 -28 -28 -28 -28 -28 -28 -28 -28 -28 -28 -28 -29 -30 -31 -32 -32 -33 -33 -33 -33 -33 -33 -33 -32 -32 -32 -33 -32 -32 -32 -32 -32 -31
-31 -30 -30 -30 -30 -30 -29 -29 -29 -29 -29 -29 -29 -29 -29 -28 -28 -28 -28 -28 -28 -27 -27 -27 -27 -27 -27 -27 -27 -27 -27 -27 -27 -27 -27 -27 -28 -28 -28 -28 -28 -28 -28 -28 -28 -28 -28 -28 -28 -28 -29 -29 -30 -31 -32 -33 -33 -34 -34 -34 -34 -34 -34 -33 -33 -33 -33 -33 -33 -32 -32 -32 -32 -31
-32 -32 -31 -31 -30 -30 -30 -30 -30 -30 -30 -29 -29 -29 -29 -29 -29 -29 -28 -28 -28 -27 -27 -27 -27 -27 -27 -27 -27 -27 -27 -27 -27 -27 -28 -28 -28 -28 -28 -28 -28 -28 -28 -28 -28 -28 -28 -28 -28 -29 -29 -30 -31 -32 -33 -33 -34 -34 -35 -35 -34 -34 -34 -34 -34 -33 -33 -33 -34 -33 -32 -32 -32 -32
-33 -33 -33 -32 -31 -30 -30 -30 -30 -30 -30 -30 -29 -29 -29 -29 -29 -29 -28 -28 -28 -28 -27 -28 -28 -27 -27 -27 -27 -27 -27 -27 -27 -28 -28 -28 -28 -28 -28 -28 -29 -29 -29 -28 -28 -28 -29 -29 -29 -30 -30 -31 -32 -33 -33 -34 -34 -35 -35 -35 -34 -34 -34 -34 -34 -34 -33 -33 -34 -33 -32 -32 -33 -32
-34 -34 -33 -33 -32 -31 -31 -31 -31 -31 -30 -30 -30 -30 -29 -29 -29 -29 -29 -28 -28 -28 -28 -28 -28 -28 -27 -27 -27 -27 -28 -28 -28 -28 -28 -28 -28 -28 -28 -28 -29 -29 -29 -28 -28 -28 -29 -30 -30 -30 -31 -32 -33 -33 -34 -34 -35 -35 -35 -35 -35 -34 -34 -34 -35 -34 -34 -33 -33 -34 -33 -32 -33 -32
-35 -34 -34 -33 -33 -32 -32 -31 -31 -31 -30 -30 -30 -30 -30 -29 -29 -29 -29 -28 -28 -28 -28 -28 -28 -28 -28 -27 -28 -28 -28 -28 -28 -29 -29 -29 -29 -29 -29 -29 -29 -29 -28 -28 -28 -28 -30 -31 -30 -31 -32 -33 -34 -34 -34 -34 -35 -35 -35 -35 -35 -35 -34 -35 -35 -34 -34 -33 -33 -33 -33 -32 -33 -32
-35 -34 -34 -33 -33 -32 -32 -32 -31 -31 -30 -30 -30 -30 -30 -29 -29 -29 -29 -29 -29 -28 -28 -28 -28 -28 -28 -28 -28 -28 -28 -28 -29 -29 -29 -29 -29 -29 -29 -29 -29 -29 -29 -28 -28 -29 -30 -31 -31 -31 -33 -34 -34 -34 -34 -34 -34 -35 -35 -35 -35 -35 -34 -35 -35 -34 -34 -33 -33 -33 -33 -32 -32 -32
-35 -34 -34 -33 -33 -32 -32 -31 -31 -31 -30 -30 -30 -30 -30 -29 -29 -29 -29 -29 -29 -29 -28 -28 -28 -28 -28 -28 -28 -29 -29 -29 -29 -29 -29 -29 -29 -29 -29 -30 -30 -30 -30 -30 -29 -29 -31 -32 -32 -32 -34 -34 -34 -34 -34 -34 -35 -35 -35 -35 -35 -35 -35 -35 -35 -35 -34 -33 -33 -33 -33 -32 -32 -32
-35 -34 -33 -33 -32 -32 -32 -31 -31 -31 -30 -30 -30 -30 -30 -29 -29 -29 -29 -29 -29 -29 -28 -28 -28 -29 -29 -29 -29 -29 -29 -29 -29 -29 -29 -29 -29 -29 -29 -30 -31 -31 -31 -31 -30 -30 -31 -33 -32 -33 -34 -34 -34 -34 -34 -35 -35 -35 -35 -35 -35 -35 -35 -35 -35 -34 -34 -33 -33 -33 -33 -32 -32 -32
-35 -34 -33 -33 -32 -32 -31 -31 -31 -31 -30 -30 -30 -30 -30 -30 -30 -30 -29 -29 -29 -29 -29 -29 -29 -29 -29 -29 -29 -29 -29 -29 -29 -29 -29 -29 -29 -29 -29 -30 -31 -31 -31 -31 -31 -31 -32 -33 -33 -33 -34 -34 -34 -34 -34 -35 -35 -35 -35 -35 -35 -35 -34 -34 -34 -34 -33 -33 -33 -33 -33 -32 -32 -32
-34 -33 -33 -33 -32 -32 -31 -31 -31 -31 -30 -30 -30 -30 -30 -30 -30 -30 -29 -29 -29 -29 -29 -29 -29 -29 -29 -29 -29 -29 -29 -29 -29 -29 -29 -29 -29 -29 -29 -30 -31 -32 -32 -32 -32 -32 -33 -34 -34 -33 -34 -34 -34 -34 -35 -35 -35 -35 -35 -35 -34 -34 -33 -33 -33 -33 -33 -32 -32 -33 -32 -32 -32 -31
-33 -33 -33 -32 -32 -32 -31 -31 -31 -30 -30 -30 -30 -30 -30 -30 -30 -29 -29 -29 -29 -29 -29 -29 -29 -29 -30 -30 -29 -29 -29 -29 -29 -29 -29 -29 -29 -29 -30 -30 -31 -32 -32 -32 -32 -33 -34 -34 -34 -34 -34 -34 -34 -34 -35 -35 -35 -35 -35 -34 -33 -33 -33 -33 -33 -33 -33 -32 -32 -32 -32 -32 -31 -31
-33 -33 -32 -32 -32 -31 -31 -31 -31 -31 -30 -30 -30 -30 -30 -30 -29 -29 -29 -29 -30 -30 -30 -30 -30 -30 -30 -30 -30 -30 -30 -30 -29 -29 -29 -29 -29 -30 -30 -31 -31 -32 -32 -33 -33 -34 -34 -34 -34 -34 -34 -34 -34 -35 -35 -35 -35 -35 -34 -33 -33 -33 -33 -32 -32 -32 -32 -32 -32 -32 -32 -31 -31 -31
-32 -32 -32 -32 -31 -31 -31 -31 -31 -31 -30 -30 -30 -30 -30 -29 -29 -30 -30 -30 -30 -30 -30 -30 -30 -30 -30 -30 -30 -30 -30 -30 -29 -29 -29 -30 -30 -30 -31 -32 -32 -32 -32 -33 -34 -34 -34 -34 -34 -34 -34 -34 -34 -35 -35 -35 -35 -35 -34 -34 -33 -33 -33 -32 -32 -32 -31 -31 -32 -32 -31 -31 -31 -31
-32 -32 -32 -31 -31 -31 -31 -31 -31 -30 -30 -30 -30 -30 -30 -30 -30 -30 -30 -30 -30 -30 -30 -30 -30 -30 -30 -30 -30 -30 -30 -30 -30 -30 -30 -30 -30 -31 -31 -32 -32 -32 -33 -33 -34 -34 -34 -34 -34 -34 -34 -34 -34 -35 -35 -36 -36 -35 -34 -34 -34 -33 -33 -33 -32 -32 -31 -31 -31 -31 -31 -31 -31 -30
-32 -32 -32 -31 -31 -31 -31 -31 -30 -30 -30 -30 -30 -30 -30 -30 -30 -30 -31 -31 -31 -31 -31 -31 -31 -31 -31 -30 -30 -30 -30 -30 -30 -30 -30 -31 -31 -32 -32 -32 -32 -33 -33 -34 -34 -34 -34 -34 -34 -34 -34 -34 -35 -35 -35 -36 -36 -35 -35 -34 -34 -34 -33 -33 -32 -32 -32 -31 -31 -31 -31 -31 -30 -30
-32 -32 -31 -31 -31 -31 -31 -30 -30 -30 -30 -30 -30 -30 -30 -31 -31 -31 -31 -31 -31 -31 -31 -31 -31 -31 -31 -31 -31 -30 -30 -30 -31 -31 -31 -32 -32 -33 -33 -33 -32 -33 -33 -34 -34 -34 -34 -34 -34 -34 -34 -34 -35 -35 -35 -36 -36 -35 -35 -34 -34 -34 -33 -33 -32 -32 -32 -31 -31 -31 -31 -31 -30 -30
-32 -31 -31 -31 -31 -31 -31 -30 -30 -30 -30 -30 -30 -31 -31 -31 -31 -31 -31 -31 -31 -31 -31 -31 -31 -31 -31 -31 -31 -31 -31 -31 -31 -32 -32 -32 -33 -33 -33 -33 -33 -33 -33 -34 -34 -34 -34 -34 -34 -34 -34 -35 -35 -35 -35 -35 -36 -35 -35 -35 -35 -34 -34 -33 -33 -33 -32 -32 -32 -32 -31 -31 -30 -29
-31 -31 -31 -31 -31 -30 -30 -30 -30 -30 -30 -31 -31 -31 -31 -31 -31 -31 -31 -31 -31 -31 -31 -31 -31 -31 -31 -31 -31 -31 -31 -32 -32 -32 -33 -33 -33 -33 -33 -33 -33 -33 -34 -34 -34 -34 -34 -34 -34 -34 -35 -35 -35 -35 -35 -35 -35 -35 -35 -35 -35 -34 -34 -34 -33 -33 -33 -33 -32 -32 -31 -31 -30 -29
-31 -31 -31 -31 -31 -31 -31 -31 -31 -31 -31 -31 -31 -31 -31 -31 -31 -31 -31 -31 -31 -31 -31 -31 -31 -31 -31 -31 -31 -32 -32 -32 -32 -33 -33 -33 -33 -33 -33 -33 -34 -34 -34 -34 -34 -34 -34 -34 -34 -34 -35 -35 -35 -36 -35 -35 -36 -36 -35 -34 -34 -34 -34 -34 -33 -33 -33 -33 -32 -32 -31 -31 -30 -30
-31 -31 -31 -31 -31 -31 -31 -31 -31 -31 -31 -31 -31 -31 -32 -32 -32 -32 -32 -31 -32 -32 -32 -32 -32 -32 -32 -32 -32 -32 -32 -32 -33 -33 -33 -33 -33 -33 -33 -34 -34 -34 -34 -35 -35 -34 -34 -34 -34 -34 -35 -35 -35 -36 -36 -35 -36 -35 -35 -34 -34 -34 -34 -34 -34 -33 -33 -33 -32 -32 -31 -31 -30 -30
-31 -31 -31 -31 -31 -31 -31 -31 -31 -31 -31 -32 -32 -32 -32 -32 -32 -32 -32 -32 -32 -32 -32 -32 -32 -32 -32 -32 -32 -32 -33 -33 -33 -33 -33 -33 -34 -34 -34 -34 -34 -34 -35 -35 -35 -35 -34 -34 -34 -34 -35 -35 -35 -35 -36 -36 -35 -35 -35 -35 -34 -34 -34 -34 -33 -33 -33 -32 -32 -32 -32 -31 -31 -30
-31 -31 -31 -31 -31 -31 -31 -31 -31 -31 -31 -32 -32 -32 -32 -32 -32 -32 -32 -32 -32 -32 -32 -32 -32 -32 -32 -32 -32 -33 -33 -33 -33 -33 -33 -34 -34 -34 -34 -34 -34 -34 -34 -35 -35 -35 -35 -34 -34 -34 -34 -35 -35 -35 -35 -35 -35 -35 -35 -35 -34 -34 -34 -33 -33 -33 -33 -33 -32 -32 -32 -32 -31 -30
-31 -31 -31 -31 -31 -31 -31 -31 -31 -31 -31 -31 -32 -32 -32 -32 -32 -32 -32 -32 -32 -32 -32 -32 -32 -32 -32 -32 -33 -33 -33 -33 -33 -33 -34 -34 -34 -34 -34 -34 -34 -34 -34 -35 -35 -35 -35 -34 -34 -34 -34 -34 -35 -35 -35 -35 -35 -35 -35 -35 -35 -34 -34 -34 -33 -33 -33 -33 -32 -32 -32 -32 -31 -31
-31 -31 -31 -31 -31 -31 -31 -31 -31 -31 -31 -32 -32 -32 -32 -32 -32 -32 -32 -32 -32 -32 -32 -32 -32 -32 -33 -33 -33 -33 -33 -34 -34 -34 -34 -34 -34 -34 -34 -34 -34 -34 -34 -34 -34 -35 -34 -34 -34 -34 -34 -34 -35 -35 -35 -35 -35 -35 -35 -35 -34 -34 -34 -34 -33 -33 -33 -33 -33 -32 -32 -32 -32 -31
-31 -31 -31 -31 -31 -31 -31 -31 -31 -31 -32 -32 -32 -32 -32 -32 -32 -32 -32 -32 -32 -32 -32 -32 -32 -33 -33 -33 -33 -33 -34 -34 -34 -34 -34 -34 -34 -34 -34 -34 -34 -34 -34 -34 -34 -35 -35 -34 -34 -34 -34 -34 -34 -35 -35 -35 -35 -35 -35 -35 -34 -34 -34 -34 -33 -33 -33 -33 -33 -33 -33 -32 -32 -32
-31 -31 -31 -31 -31 -31 -31 -31 -31 -32 -32 -32 -32 -32 -32 -32 -32 -32 -32 -32 -32 -32 -32 -32 -33 -33 -33 -33 -33 -34 -34 -34 -34 -34 -34 -34 -34 -34 -34 -34 -34 -34 -34 -34 -34 -34 -35 -34 -34 -34 -34 -34 -34 -35 -35 -35 -35 -35 -35 -35 -34 -34 -34 -34 -33 -33 -33 -33 -33 -33 -33 -32 -32 -32
-31 -32 -32 -31 -31 -31 -31 -32 -32 -32 -32 -32 -32 -32 -32 -32 -32 -32 -32 -32 -32 -32 -32 -33 -33 -33 -33 -33 -34 -34 -34 -34 -34 -34 -34 -34 -34 -34 -34 -35 -35 -35 -34 -34 -34 -34 -34 -34 -34 -34 -34 -34 -34 -34 -35 -35 -35 -35 -35 -34 -34 -34 -34 -34 -33 -33 -33 -33 -33 -33 -32 -32 -32 -32
-31 -32 -32 -32 -32 -32 -32 -32 -32 -32 -31 -31 -31 -31 -32 -32 -32 -32 -32 -32 -32 -32 -33 -33 -33 -33 -33 -34 -34 -34 -34 -34 -35 -35 -35 -35 -35 -35 -35 -34 -35 -35 -35 -34 -34 -34 -34 -35 -34 -34 -34 -34 -34 -34 -35 -35 -35 -35 -34 -34 -34 -34 -34 -34 -34 -33 -33 -33 -33 -32 -32 -32 -32 -32
-32 -32 -32 -32 -32 -32 -31 -31 -31 -31 -31 -31 -31 -31 -31 -32 -32 -32 -32 -32 -33 -33 -33 -33 -33 -33 -34 -34 -34 -34 -34 -35 -35 -35 -35 -35 -35 -35 -35 -34 -34 -35 -35 -35 -34 -34 -34 -35 -35 -34 -34 -34 -34 -34 -34 -35 -35 -35 -34 -34 -34 -34 -34 -34 -33 -33 -33 -33 -32 -32 -32 -32 -32 -32
-32 -32 -32 -31 -31 -31 -31 -31 -31 -31 -31 -31 -31 -31 -31 -32 -32 -32 -32 -32 -33 -33 -33 -33 -33 -34 -34 -34 -34 -34 -35 -35 -35 -35 -35 -35 -35 -35 -35 -35 -35 -34 -34 -35 -35 -35 -34 -34 -35 -35 -34 -34 -34 -34 -34 -34 -35 -35 -35 -34 -34 -34 -34 -33 -33 -33 -33 -33 -32 -32 -32 -32 -32 -31
-32 -31 -31 -31 -31 -31 -31 -31 -31 -31 -31 -31 -31 -31 -32 -32 -32 -32 -32 -32 -33 -33 -33 -33 -34 -34 -34 -34 -34 -35 -35 -35 -35 -35 -35 -35 -35 -35 -35 -35 -35 -35 -35 -35 -35 -35 -35 -34 -34 -35 -34 -34 -34 -34 -34 -34 -34 -35 -35 -34 -34 -34 -34 -33 -33 -33 -33 -33 -32 -32 -32 -32 -32 -31
-31 -31 -31 -31 -31 -31 -31 -31 -31 -31 -31 -31 -31 -32 -32 -32 -32 -32 -32 -33 -33 -33 -33 -34 -34 -34 -34 -34 -35 -35 -35 -35 -35 -35 -35 -35 -35 -35 -35 -35 -35 -35 -35 -35 -34 -35 -35 -35 -34 -34 -35 -35 -34 -34 -34 -34 -34 -34 -34 -34 -34 -34 -33 -33 -33 -33 -33 -32 -32 -32 -32 -32 -32 -31
-31 -31 -31 -31 -31 -31 -31 -31 -31 -31 -31 -31 -32 -32 -32 -32 -32 -32 -33 -33 -33 -33 -34 -34 -34 -34 -34 -35 -35 -35 -35 -35 -35 -36 -36 -36 -36 -36 -35 -35 -35 -35 -35 -35 -35 -34 -34 -35 -34 -34 -35 -35 -35 -34 -34 -34 -34 -34 -34 -34 -34 -34 -33 -33 -33 -33 -33 -32 -32 -32 -32 -32 -32 -32
-31 -31 -31 -31 -31 -31 -31 -31 -31 -31 -31 -32 -32 -32 -32 -32 -32 -32 -33 -33 -33 -33 -34 -34 -34 -34 -35 -35 -35 -35 -35 -35 -36 -36 -36 -36 -36 -36 -36 -35 -35 -35 -35 -35 -35 -35 -35 -35 -35 -34 -34 -34 -35 -34 -34 -34 -34 -34 -34 -34 -34 -34 -33 -33 -33 -33 -33 -32 -32 -32 -32 -32 -32 -32
Height
5408 5409 5411 5413 5416 5418 5418 5420 5421 5423 5425 5426 5427 5429 5430 5430 5432 5433 5435 5437 5437 5436 5435 5434 5433 5432 5432 5432 5432 5432 5432 5431 5431 5432 5432 5431 5430 5428 5427 5426 5424 5421 5419 5417 5414 5412 5409 5407 5405 5404 5402 5400 5398 5396 5394 5392 5388 5387 5385 5382 5379 5377 5376 5372 5370 5369 5367 5365 5366 5369 5372 5375 5379 5383
5397 5398 5400 5403 5406 5407 5408 5410 5412 5413 5415 5417 5418 5420 5421 5421 5423 5425 5426 5429 5429 5429 5428 5427 5425 5425 5424 5424 5424 5423 5422 5422 5422 5422 5422 5421 5419 5418 5417 5415 5412 5410 5408 5405 5403 5400 5397 5395 5393 5391 5389 5387 5385 5382 5380 5377 5373 5371 5369 5365 5362 5360 5358 5355 5353 5350 5349 5347 5347 5349 5352 5355 5359 5363
5386 5388 5390 5393 5396 5398 5399 5400 5402 5404 5406 5408 5409 5411 5412 5413 5414 5415 5416 5420 5422 5421 5420 5419 5418 5417 5417 5416 5415 5414 5413 5414 5413 5412 5412 5410 5408 5407 5406 5404 5402 5400 5397 5394 5391 5388 5386 5384 5381 5379 5377 5374 5372 5368 5365 5361 5358 5355 5352 5348 5345 5342 5340 5338 5336 5333 5333 5332 5331 5332 5335 5337 5340 5345
5375 5377 5380 5383 5386 5388 5388 5390 5393 5395 5397 5399 5401 5402 5403 5404 5406 5406 5407 5411 5413 5413 5412 5412 5411 5410 5409 5409 5408 5406 5405 5405 5404 5403 5402 5399 5397 5396 5395 5394 5391 5389 5386 5382 5379 5377 5374 5371 5368 5366 5364 5361 5358 5354 5350 5347 5343 5340 5337 5333 5329 5326 5324 5322 5320 5318 5318 5318 5317 5318 5319 5321 5324 5328
5364 5367 5370 5373 5375 5377 5378 5381 5383 5385 5388 5390 5392 5394 5395 5396 5397 5398 5399 5402 5404 5404 5404 5404 5403 5402 5402 5401 5400 5398 5396 5396 5395 5393 5391 5389 5387 5386 5385 5384 5381 5377 5374 5371 5367 5365 5362 5359 5356 5353 5350 5348 5344 5340 5337 5333 5329 5326 5322 5319 5315 5312 5309 5308 5306 5305 5304 5305 5306 5305 5305 5306 5308 5312
5352 5355 5359 5362 5364 5366 5368 5371 5373 5376 5378 5380 5383 5385 5386 5388 5389 5390 5390 5392 5394 5395 5395 5395 5395 5394 5393 5393 5392 5389 5388 5387 5386 5384 5381 5378 5377 5376 5374 5373 5371 5366 5362 5359 5356 5353 5350 5347 5343 5341 5337 5334 5331 5327 5323 5319 5315 5312 5308 5305 5302 5299 5297 5295 5294 5293 5292 5293 5293 5292 5292 5293 5293 5297
5340 5343 5347 5351 5354 5356 5358 5361 5364 5366 5369 5371 5374 5376 5377 5379 5381 5381 5382 5383 5385 5386 5386 5387 5387 5386 5384 5384 5383 5381 5380 5378 5376 5374 5372 5369 5368 5366 5364 5362 5360 5355 5350 5347 5344 5341 5338 5335 5331 5328 5325 5321 5317 5314 5309 5305 5301 5298 5295 5292 5290 5288 5286 5284 5282 5282 5281 5280 5281 5280 5280 5280 5280 5283
5327 5331 5336 5340 5342 5345 5348 5351 5354 5357 5359 5362 5364 5366 5368 5371 5372 5373 5373 5375 5376 5377 5377 5378 5378 5376 5376 5375 5374 5372 5371 5369 5367 5365 5362 5360 5358 5356 5353 5350 5348 5345 5339 5335 5332 5329 5326 5323 5320 5316 5312 5308 5304 5300 5296 5292 5288 5285 5282 5280 5278 5277 5275 5273 5271 5270 5269 5268 5268 5268 5268 5268 5268 5269
5314 5319 5325 5329 5331 5333 5337 5341 5344 5348 5350 5352 5354 5357 5359 5362 5363 5364 5365 5367 5367 5368 5369 5369 5368 5368 5367 5366 5365 5363 5361 5360 5358 5356 5353 5351 5349 5346 5343 5340 5337 5333 5329 5325 5321 5317 5314 5311 5308 5304 5299 5295 5291 5287 5283 5279 5275 5272 5270 5269 5267 5265 5263 5262 5260 5259 5258 5257 5257 5257 5256 5256 5256 5257
5300 5306 5312 5316 5319 5323 5327 5331 5335 5338 5340 5342 5345 5348 5350 5353 5354 5356 5357 5358 5359 5360 5360 5360 5360 5359 5358 5357 5356 5353 5352 5351 5350 5347 5345 5343 5340 5335 5332 5330 5326 5322 5319 5315 5310 5306 5303 5299 5295 5291 5287 5282 5278 5274 5270 5266 5263 5261 5259 5257 5256 5254 5251 5250 5248 5247 5246 5245 5245 5245 5245 5245 5245 5246
5286 5292 5298 5303 5308 5312 5317 5320 5324 5328 5330 5332 5335 5338 5341 5344 5346 5348 5349 5349 5350 5351 5351 5351 5351 5350 5349 5349 5347 5344 5342 5342 5341 5338 5338 5336 5331 5325 5322 5319 5315 5310 5307 5304 5300 5295 5291 5288 5283 5279 5274 5269 5265 5261 5257 5254 5251 5249 5247 5246 5244 5242 5240 5237 5236 5236 5236 5235 5234 5234 5234 5234 5234 5235
5272 5278 5284 5290 5295 5301 5306 5310 5313 5317 5320 5322 5325 5329 5332 5334 5337 5339 5340 5341 5342 5342 5342 5343 5342 5341 5341 5340 5338 5336 5334 5334 5332 5330 5328 5327 5323 5318 5314 5309 5303 5298 5296 5293 5290 5284 5279 5276 5272 5267 5263 5258 5253 5249 5245 5242 5241 5238 5235 5234 5232 5230 5228 5226 5225 5225 5225 5224 5222 5222 5223 5223 5223 5225
5260 5265 5270 5276 5283 5290 5295 5299 5303 5307 5310 5313 5317 5321 5323 5325 5328 5330 5332 5333 5334 5334 5334 5334 5333 5333 5333 5331 5328 5328 5326 5325 5324 5321 5318 5317 5313 5309 5307 5302 5292 5286 5284 5282 5279 5274 5267 5264 5261 5256 5253 5248 5242 5238 5235 5232 5231 5228 5224 5222 5220 5218 5217 5216 5214 5213 5213 5214 5212 5210 5211 5212 5212 5214
5249 5255 5260 5265 5271 5278 5283 5288 5293 5298 5302 5305 5309 5312 5314 5317 5319 5322 5324 5325 5325 5326 5326 5326 5325 5325 5324 5322 5320 5320 5318 5317 5316 5313 5309 5307 5304 5299 5298 5295 5285 5275 5272 5271 5270 5265 5257 5253 5251 5246 5241 5237 5232 5229 5228 5224 5222 5219 5215 5211 5208 5207 5206 5205 5203 5202 5201 5203 5202 5199 5200 5201 5202 5203
5239 5245 5251 5256 5262 5268 5274 5279 5284 5288 5293 5297 5301 5304 5306 5309 5311 5314 5315 5316 5317 5317 5318 5318 5317 5317 5315 5313 5312 5311 5310 5309 5307 5304 5300 5297 5294 5290 5287 5285 5278 5267 5261 5261 5261 5257 5249 5241 5240 5237 5230 5227 5224 5221 5220 5216 5213 5209 5205 5201 5198 5197 5196 5195 5192 5190 5189 5190 5191 5189 5189 5190 5191 5193
5232 5237 5243 5248 5255 5261 5266 5271 5275 5280 5285 5290 5293 5296 5299 5302 5304 5306 5307 5308 5308 5309 5309 5310 5309 5307 5307 5306 5304 5302 5302 5302 5299 5296 5292 5288 5285 5282 5277 5273 5268 5257 5251 5250 5250 5250 5243 5231 5228 5227 5222 5218 5217 5214 5211 5207 5203 5199 5195 5192 5189 5186 5185 5183 5181 5178 5177 5178 5179 5178 5177 5179 5181 5182
5226 5231 5237 5243 5249 5255 5259 5263 5267 5272 5278 5282 5285 5289 5292 5295 5297 5298 5299 5300 5300 5301 5302 5302 5301 5299 5299 5299 5297 5295 5294 5294 5291 5288 5285 5280 5276 5274 5268 5262 5256 5247 5240 5237 5237 5241 5236 5223 5218 5219 5215 5211 5209 5206 5202 5198 5193 5189 5184 5180 5178 5175 5172 5171 5167 5165 5164 5165 5165 5165 5165 5168 5170 5172
5221 5227 5233 5238 5243 5247 5252 5256 5261 5266 5271 5274 5278 5282 5285 5287 5289 5290 5291 5292 5293 5294 5294 5294 5293 5292 5292 5292 5289 5288 5287 5286 5284 5281 5277 5272 5269 5266 5260 5253 5247 5239 5231 5226 5225 5230 5228 5216 5211 5212 5208 5204 5202 5199 5194 5189 5182 5178 5173 5168 5165 5162 5159 5157 5154 5151 5150 5151 5152 5153 5153 5156 5159 5162
5217 5222 5228 5233 5237 5241 5246 5250 5255 5260 5264 5267 5272 5275 5278 5280 5281 5283 5284 5285 5285 5286 5286 5287 5286 5285 5285 5284 5283 5281 5280 5278 5276 5273 5269 5265 5261 5258 5253 5246 5239 5231 5223 5217 5214 5219 5219 5209 5203 5204 5201 5196 5195 5191 5185 5179 5171 5165 5160 5155 5151 5148 5145 5143 5140 5137 5137 5138 5139 5140 5141 5145 5148 5152
5213 5218 5223 5228 5232 5237 5241 5245 5249 5253 5258 5262 5266 5269 5271 5273 5274 5276 5277 5277 5278 5279 5279 5279 5279 5279 5278 5277 5276 5275 5273 5271 5269 5265 5261 5257 5253 5250 5245 5239 5231 5223 5215 5207 5204 5208 5209 5201 5195 5196 5193 5188 5187 5183 5174 5167 5160 5154 5148 5143 5138 5134 5130 5128 5126 5124 5123 5124 5126 5128 5129 5133 5137 5142
5210 5215 5220 5224 5229 5232 5236 5240 5244 5248 5253 5256 5259 5262 5264 5266 5268 5269 5270 5270 5271 5271 5272 5273 5273 5272 5271 5270 5269 5268 5266 5264 5261 5257 5253 5250 5245 5240 5236 5231 5225 5216 5207 5200 5196 5198 5199 5193 5187 5187 5184 5180 5178 5173 5164 5157 5150 5143 5136 5131 5125 5120 5116 5113 5111 5110 5109 5110 5112 5115 5118 5122 5127 5132
5209 5213 5218 5221 5225 5229 5232 5236 5240 5244 5247 5250 5253 5255 5257 5260 5261 5262 5263 5264 5264 5265 5266 5266 5266 5266 5265 5264 5262 5261 5259 5256 5253 5250 5246 5242 5237 5232 5226 5222 5218 5212 5201 5194 5191 5190 5190 5185 5179 5175 5175 5175 5171 5163 5153 5146 5138 5130 5123 5117 5112 5106 5100 5098 5096 5095 5095 5096 5100 5103 5107 5112 5117 5122
5207 5211 5215 5218 5222 5225 5229 5232 5236 5239 5242 5244 5247 5250 5252 5254 5255 5256 5257 5257 5258 5259 5260 5260 5260 5259 5259 5258 5256 5254 5252 5249 5246 5242 5238 5234 5229 5224 5219 5214 5210 5205 5196 5189 5187 5185 5183 5178 5171 5165 5163 5165 5165 5156 5144 5135 5125 5116 5109 5104 5099 5093 5086 5084 5083 5082 5082 5084 5088 5092 5096 5102 5107 5112
5204 5208 5211 5215 5219 5222 5225 5229 5231 5234 5237 5240 5242 5245 5247 5248 5249 5250 5251 5252 5253 5254 5254 5254 5254 5253 5252 5251 5249 5247 5245 5242 5239 5235 5230 5226 5221 5216 5212 5207 5202 5197 5190 5184 5181 5180 5176 5171 5165 5159 5153 5152 5153 5148 5138 5126 5114 5104 5098 5092 5087 5082 5076 5073 5073 5072 5072 5075 5077 5081 5087 5092 5098 5104
5202 5206 5209 5213 5216 5219 5222 5225 5228 5230 5233 5235 5238 5240 5241 5242 5244 5245 5246 5247 5248 5248 5248 5248 5248 5247 5246 5245 5243 5241 5238 5234 5230 5226 5222 5218 5213 5209 5204 5201 5196 5190 5183 5178 5176 5174 5171 5165 5160 5155 5149 5142 5138 5134 5128 5119 5106 5095 5089 5083 5077 5073 5068 5065 5064 5064 5064 5067 5070 5074 5079 5085 5091 5098
5200 5204 5208 5211 5214 5217 5219 5222 5225 5227 5229 5231 5233 5235 5236 5238 5239 5240 5241 5242 5243 5243 5243 5243 5243 5242 5240 5239 5237 5234 5231 5227 5223 5219 5216 5211 5207 5202 5197 5193 5190 5185 5179 5174 5171 5168 5165 5160 5154 5149 5144 5137 5130 5122 5116 5110 5100 5090 5082 5076 5070 5066 5061 5058 5058 5057 5058 5061 5065 5069 5074 5079 5086 5094
5199 5203 5206 5209 5212 5214 5216 5219 5221 5223 5224 5226 5228 5230 5232 5233 5235 5236 5237 5238 5238 5238 5238 5238 5238 5237 5235 5233 5231 5228 5224 5221 5217 5213 5209 5205 5201 5196 5191 5186 5183 5179 5174 5171 5167 5163 5159 5155 5150 5144 5138 5132 5125 5116 5108 5102 5094 5085 5077 5070 5064 5060 5056 5054 5053 5053 5054 5057 5061 5065 5070 5075 5082 5091
5199 5202 5204 5207 5209 5211 5214 5216 5218 5219 5221 5223 5224 5226 5228 5230 5231 5232 5233 5233 5233 5234 5234 5233 5233 5232 5230 5228 5225 5222 5219 5215 5211 5207 5203 5200 5196 5191 5185 5180 5176 5173 5169 5166 5162 5158 5154 5150 5145 5140 5133 5125 5118 5111 5104 5097 5088 5079 5072 5066 5060 5056 5053 5051 5050 5049 5051 5054 5058 5062 5067 5073 5081 5091
5198 5200 5202 5204 5206 5209 5211 5212 5214 5215 5217 5219 5221 5223 5225 5226 5227 5228 5228 5229 5229 5229 5229 5229 5228 5227 5226 5223 5220 5218 5214 5211 5207 5202 5198 5195 5190 5186 5180 5174 5169 5166 5164 5161 5157 5153 5150 5145 5141 5135 5128 5120 5113 5106 5100 5093 5084 5075 5067 5062 5057 5053 5050 5049 5048 5048 5049 5052 5055 5060 5066 5073 5081 5091
5197 5199 5201 5202 5204 5206 5208 5209 5210 5212 5214 5216 5218 5220 5221 5222 5223 5224 5224 5225 5225 5225 5225 5225 5224 5222 5221 5218 5216 5213 5210 5206 5202 5199 5194 5190 5186 5181 5176 5170 5164 5160 5158 5156 5152 5149 5145 5141 5136 5131 5125 5118 5110 5104 5096 5089 5082 5073 5065 5059 5055 5051 5049 5048 5048 5048 5049 5052 5055 5059 5065 5072 5081 5091
5195 5197 5199 5200 5202 5203 5205 5207 5208 5210 5212 5214 5215 5217 5218 5219 5219 5220 5221 5221 5221 5221 5221 5220 5219 5218 5216 5214 5211 5208 5205 5201 5198 5194 5190 5186 5182 5177 5173 5168 5161 5156 5152 5150 5147 5144 5142 5138 5133 5128 5122 5116 5109 5102 5095 5087 5079 5072 5064 5057 5053 5050 5048 5047 5047 5048 5050 5053 5056 5061 5067 5074 5082 5092
5194 5195 5197 5198 5200 5202 5203 5205 5206 5208 5209 5211 5212 5213 5214 5215 5216 5217 5218 5218 5218 5217 5217 5216 5215 5213 5211 5209 5206 5203 5200 5196 5193 5189 5185 5181 5177 5173 5169 5165 5160 5155 5150 5147 5143 5140 5137 5135 5131 5125 5120 5115 5109 5102 5094 5086 5078 5071 5064 5058 5053 5050 5048 5047 5048 5049 5052 5055 5060 5065 5071 5078 5086 5095
5192 5194 5195 5197 5198 5200 5201 5202 5204 5205 5207 5208 5209 5210 5211 5212 5213 5214 5214 5214 5214 5214 5213 5212 5210 5208 5206 5204 5200 5197 5194 5191 5187 5184 5180 5176 5173 5169 5165 5161 5157 5153 5149 5146 5142 5138 5134 5131 5128 5124 5119 5114 5108 5102 5095 5087 5079 5072 5065 5060 5055 5052 5050 5049 5050 5052 5056 5059 5064 5070 5076 5083 5091 5099
5191 5192 5194 5195 5196 5198 5199 5201 5202 5203 5205 5206 5207 5208 5209 5209 5210 5210 5211 5210 5210 5210 5209 5207 5206 5204 5201 5199 5195 5192 5189 5185 5182 5178 5175 5172 5168 5165 5162 5158 5154 5150 5147 5144 5141 5138 5133 5129 5125 5122 5118 5113 5107 5102 5095 5088 5081 5074 5068 5063 5059 5056 5054 5053 5054 5056 5060 5065 5070 5075 5082 5088 5095 5103
5189 5191 5192 5194 5195 5196 5198 5199 5200 5201 5202 5203 5204 5205 5206 5206 5207 5207 5207 5207 5206 5206 5204 5203 5201 5199 5197 5194 5191 5188 5184 5181 5177 5174 5171 5167 5164 5161 5158 5155 5151 5147 5144 5141 5138 5135 5132 5129 5125 5121 5117 5112 5106 5101 5095 5089 5083 5077 5072 5068 5064 5061 5059 5059 5060 5063 5066 5071 5076 5081 5087 5093 5100 5107
5189 5190 5191 5193 5194 5195 5196 5197 5198 5199 5200 5201 5202 5202 5203 5204 5204 5204 5204 5203 5203 5202 5200 5199 5197 5195 5192 5190 5187 5184 5181 5177 5174 5170 5167 5163 5160 5157 5154 5151 5147 5144 5141 5138 5136 5133 5130 5127 5124 5121 5117 5112 5106 5101 5096 5091 5085 5080 5076 5072 5069 5067 5066 5066 5068 5070 5073 5077 5082 5087 5092 5098 5104 5111
5188 5189 5191 5192 5193 5194 5195 5196 5197 5197 5198 5199 5199 5200 5200 5201 5201 5201 5200 5200 5199 5198 5196 5195 5193 5190 5188 5185 5183 5180 5177 5174 5171 5167 5164 5160 5157 5154 5150 5147 5144 5141 5138 5135 5133 5130 5127 5125 5122 5119 5116 5112 5107 5102 5097 5093 5088 5084 5081 5078 5075 5073 5072 5073 5075 5077 5081 5084 5088 5093 5098 5102 5107 5113
5188 5189 5190 5191 5192 5193 5193 5194 5195 5195 5196 5197 5197 5197 5197 5198 5198 5197 5197 5196 5195 5194 5192 5190 5188 5186 5184 5181 5179 5176 5173 5170 5167 5164 5161 5157 5154 5151 5148 5145 5141 5138 5135 5132 5129 5127 5125 5122 5120 5118 5115 5111 5108 5104 5100 5096 5092 5088 5085 5083 5081 5079 5079 5079 5081 5084 5087 5090 5094 5098 5102 5105 5109 5114
5187 5188 5189 5190 5191 5191 5192 5192 5193 5194 5194 5194 5194 5195 5195 5195 5194 5194 5193 5192 5191 5190 5188 5186 5184 5182 5180 5177 5175 5172 5169 5166 5163 5160 5157 5154 5151 5148 5145 5142 5139 5136 5133 5129 5127 5125 5123 5120 5118 5116 5113 5111 5108 5106 5103 5099 5095 5092 5089 5087 5086 5085 5084 5085 5087 5089 5092 5094 5098 5101 5104 5107 5111 5116
5187 5187 5188 5189 5189 5190 5190 5191 5191 5192 5192 5192 5192 5192 5192 5191 5191 5190 5189 5188 5187 5186 5184 5182 5180 5178 5175 5173 5171 5168 5166 5162 5159 5156 5153 5150 5148 5145 5142 5139 5136 5134 5131 5128 5124 5122 5121 5119 5117 5115 5112 5110 5108 5106 5104 5101 5097 5094 5092 5091 5090 5090 5090 5090 5091 5093 5095 5097 5100 5104 5107 5111 5115 5119
5186 5187 5187 5188 5188 5189 5189 5189 5189 5189 5189 5189 5189 5189 5189 5188 5188 5187 5186 5185 5183 5182 5180 5178 5176 5173 5171 5169 5167 5164 5162 5159 5156 5153 5149 5147 5144 5141 5138 5136 5133 5130 5128 5126 5123 5120 5118 5117 5116 5114 5112 5110 5108 5106 5105 5102 5099 5097 5095 5094 5094 5094 5094 5095 5096 5097 5099 5101 5104 5107 5111 5114 5117 5121
5186 5186 5187 5187 5187 5187 5187 5187 5187 5187 5187 5187 5187 5186 5186 5185 5184 5183 5182 5181 5179 5178 5176 5174 5172 5169 5167 5165 5162 5160 5157 5155 5152 5149 5146 5143 5140 5137 5135 5132 5130 5127 5125 5123 5121 5119 5116 5115 5114 5112 5111 5109 5108 5106 5105 5103 5101 5100 5098 5097 5097 5097 5097 5098 5099 5100 5101 5104 5106 5109 5113 5117 5120 5123
5186 5186 5186 5186 5187 5186 5186 5186 5185 5185 5185 5184 5184 5183 5183 5182 5181 5180 5179 5177 5176 5174 5172 5170 5167 5165 5163 5160 5158 5155 5153 5150 5148 5145 5142 5140 5137 5134 5131 5129 5127 5124 5122 5120 5118 5117 5115 5113 5111 5110 5109 5108 5107 5105 5104 5103 5102 5101 5100 5099 5098 5098 5099 5099 5100 5102 5104 5106 5108 5111 5114 5118 5121 5125
5185 5186 5186 5186 5185 5185 5185 5184 5184 5183 5182 5182 5181 5181 5180 5179 5178 5177 5175 5173 5172 5170 5168 5165 5163 5160 5158 5156 5153 5151 5149 5146 5144 5141 5139 5136 5134 5131 5128 5126 5124 5122 5120 5117 5115 5114 5112 5111 5109 5108 5107 5106 5105 5104 5104 5103 5102 5101 5100 5100 5099 5099 5100 5100 5102 5103 5105 5107 5109 5112 5115 5118 5121 5125
5185 5185 5185 5185 5184 5183 5183 5182 5182 5181 5180 5180 5179 5178 5177 5176 5175 5173 5171 5170 5168 5166 5163 5161 5158 5156 5154 5151 5149 5146 5144 5142 5139 5137 5135 5132 5130 5127 5125 5123 5121 5119 5117 5115 5113 5111 5109 5108 5107 5106 5105 5104 5104 5103 5102 5102 5101 5100 5100 5100 5099 5099 5100 5101 5102 5104 5106 5108 5110 5113 5116 5118 5122 5125
Wind_Speed
67 66 65 62 60 59 59 59 60 60 59 58 57 56 57 56 53 50 48 48 49 49 50 51 53 54 55 57 58 60 61 62 62 61 61 62 64 66 67 68 70 70 70 69 70 70 71 72 72 73 74 74 76 77 78 78 80 80 81 82 84 84 85 86 86 85 86 87 87 86 87 90 95 99
68 65 63 62 60 60 59 59 60 60 59 59 57 56 57 57 55 52 51 51 51 52 52 53 54 55 56 58 60 62 62 63 63 63 64 65 66 67 68 69 69 69 69 69 69 70 71 72 72 73 74 75 76 77 77 78 80 81 82 83 85 85 84 84 83 81 80 81 82 81 82 86 91 97
68 65 63 62 61 60 60 60 60 60 59 59 58 56 56 56 55 54 55 54 53 54 55 56 56 57 58 60 62 63 64 64 65 66 66 67 68 69 69 69 69 69 69 69 69 71 71 72 73 74 75 76 76 77 78 79 81 82 83 85 84 83 81 79 77 75 74 75 77 78 79 82 87 93
69 67 65 65 63 62 62 60 60 60 59 58 58 57 56 55 55 56 56 55 54 55 57 58 59 60 61 62 63 64 65 65 67 67 68 70 70 70 70 69 69 69 69 69 70 71 72 73 74 75 75 76 76 78 79 81 82 83 84 83 81 78 74 71 70 69 68 70 73 74 76 79 83 89
73 70 68 67 66 65 63 61 60 60 59 58 58 58 57 55 54 55 55 55 54 55 56 58 59 61 61 62 63 65 66 66 67 69 70 71 71 70 70 70 69 69 69 70 71 72 73 75 76 76 76 77 78 79 81 82 83 83 81 79 75 71 68 65 64 63 64 66 67 69 72 76 80 85
75 72 69 68 67 66 64 61 59 59 58 56 56 58 58 56 54 53 54 54 54 54 56 58 59 60 61 63 64 65 67 67 68 70 72 72 71 70 71 70 69 70 71 71 72 73 75 76 77 77 77 78 79 81 82 82 82 80 77 72 67 64 63 63 61 59 60 62 62 64 67 71 77 82
76 73 70 69 69 67 64 62 60 59 58 56 55 56 58 58 57 56 55 55 54 54 56 57 58 60 61 63 64 65 67 68 69 71 72 71 71 71 71 71 70 70 72 73 74 75 76 77 77 77 78 79 81 82 82 80 78 75 70 65 61 60 60 61 60 57 57 58 58 60 62 66 74 80
77 74 72 72 71 68 65 64 63 63 61 59 56 56 57 57 58 58 57 56 55 55 55 56 58 60 62 63 65 66 67 68 69 70 70 70 70 70 71 71 70 70 72 74 75 77 77 77 77 78 79 81 81 81 79 76 73 68 63 60 58 58 59 59 59 57 56 56 56 57 59 61 70 79
78 76 74 74 74 71 67 66 66 66 64 61 59 57 56 56 56 56 55 55 54 54 54 56 58 60 61 63 64 65 65 65 66 68 69 70 69 70 70 70 70 70 72 75 76 77 77 77 78 79 80 81 80 78 75 71 67 62 58 57 56 57 59 59 58 57 55 54 54 55 57 59 66 76
82 79 77 76 76 75 72 70 70 69 66 63 62 61 59 58 57 57 57 57 58 57 57 58 59 60 61 62 62 63 64 64 65 67 68 68 69 69 70 69 70 72 73 74 75 76 77 78 79 80 80 80 78 73 69 65 60 57 55 55 56 58 59 59 58 56 55 55 54 54 56 58 63 73
88 86 83 80 79 78 76 75 74 73 70 67 65 64 63 62 62 61 61 61 60 60 60 60 60 61 61 61 61 63 64 64 65 66 66 66 67 68 68 69 71 73 73 74 74 76 77 78 79 79 79 77 73 67 62 58 55 54 54 55 58 59 61 61 60 57 55 56 57 56 56 58 62 69
85 87 88 86 83 80 78 77 75 73 72 70 67 65 64 64 63 61 60 60 59 59 59 60 61 61 61 61 62 63 63 64 65 65 65 65 66 66 67 69 72 73 73 73 74 76 78 78 78 78 76 71 66 60 56 53 52 54 56 58 61 62 62 63 62 60 56 55 58 58 56 57 61 67
77 78 81 85 86 82 79 77 72 68 67 67 65 63 62 61 61 59 57 57 56 57 58 59 60 60 60 61 62 62 63 64 64 64 65 65 65 66 66 68 71 74 74 74 74 76 78 78 77 75 70 64 59 54 51 51 52 55 59 62 64 64 65 65 64 63 60 55 57 60 57 56 60 66
71 71 69 73 79 81 80 77 69 63 62 63 62 61 61 59 57 55 54 54 55 56 57 57 58 58 59 61 62 62 62 62 62 63 64 64 64 66 66 66 69 73 74 74 75 76 77 76 73 68 63 58 53 49 48 50 54 58 62 66 67 66 65 65 65 66 64 56 56 60 59 57 60 65
62 68 65 64 67 70 71 70 65 60 59 58 58 57 58 56 53 51 51 52 53 54 55 55 55 57 58 60 61 60 60 61 61 62 63 63 64 65 66 65 67 72 74 74 74 74 73 71 67 62 58 53 49 47 49 53 57 61 64 66 67 67 65 65 66 68 68 60 56 60 61 58 59 65
50 58 60 59 58 58 59 59 57 56 55 55 56 55 53 51 48 46 47 49 50 52 52 52 54 56 58 58 58 58 59 59 60 60 61 63 64 63 64 66 68 72 75 74 74 71 67 65 63 58 54 49 47 49 53 57 60 62 63 65 67 68 67 67 68 70 69 64 58 60 62 59 60 66
44 49 50 50 49 50 52 52 52 53 53 54 56 55 52 48 44 44 46 48 48 48 49 51 53 56 56 55 56 57 57 57 57 58 60 61 62 61 63 66 68 71 74 75 74 68 60 59 59 53 48 46 48 52 55 58 60 61 63 65 66 68 67 67 68 70 68 64 59 59 62 61 61 66
42 44 43 43 43 46 49 50 50 51 52 54 56 54 49 46 44 46 48 47 46 46 48 51 52 54 53 53 53 54 55 55 56 57 58 58 59 60 62 64 65 67 70 71 71 64 54 53 53 48 45 48 50 52 54 56 58 60 62 65 65 66 66 66 67 69 67 62 57 58 62 61 61 66
39 41 41 41 42 43 45 47 49 51 52 53 52 49 46 45 47 49 48 46 45 46 48 50 50 50 50 50 51 51 52 54 55 56 55 56 58 59 60 62 63 63 64 66 67 60 50 48 48 45 46 49 49 50 53 55 57 60 62 65 66 66 67 67 68 68 66 60 55 56 61 62 62 66
36 41 41 41 39 38 39 42 45 47 48 48 46 45 45 47 49 49 47 44 44 46 46 47 46 46 47 48 49 49 51 53 53 52 53 55 57 59 60 61 61 61 61 62 63 57 46 44 46 45 46 48 46 48 53 55 57 61 64 66 68 68 68 68 67 66 64 59 54 55 60 62 63 66
33 40 42 40 37 35 37 39 40 40 42 43 43 44 47 48 48 46 44 43 43 43 43 42 43 44 45 46 47 49 51 51 50 50 53 55 57 59 60 59 58 57 58 59 59 52 43 43 47 46 46 46 45 47 52 56 59 64 66 67 67 66 65 63 61 60 59 57 53 54 60 62 63 67
28 34 37 36 34 33 34 36 36 37 40 42 44 45 46 46 44 43 42 41 40 39 38 39 40 41 42 44 46 48 47 47 48 50 52 54 56 57 58 58 55 52 54 55 52 46 41 43 48 49 45 43 44 49 55 58 62 66 67 65 62 60 59 56 53 54 55 53 51 54 60 62 64 69
25 29 31 31 32 32 33 34 36 38 40 41 42 42 41 40 40 39 38 37 35 35 36 37 38 39 41 43 44 44 44 46 48 50 52 53 54 55 56 55 52 50 50 49 45 41 41 44 48 50 49 44 43 49 55 60 64 67 66 61 56 54 54 51 49 50 50 49 49 55 61 62 65 71
23 26 27 28 30 32 32 32 33 35 35 34 34 34 34 36 37 36 34 33 32 32 33 34 35 37 39 40 40 41 43 45 47 49 51 52 53 55 53 51 49 48 47 44 40 38 40 45 47 48 51 50 47 48 53 58 64 65 62 57 52 48 47 46 44 45 44 45 49 56 60 63 66 72
21 22 23 25 27 28 27 26 26 27 27 27 28 29 31 33 32 31 30 30 30 30 31 32 34 36 37 37 38 40 42 44 46 48 50 51 52 53 52 48 47 46 43 39 37 37 39 43 44 45 49 52 52 51 53 55 59 60 57 52 46 41 40 40 38 38 39 43 49 54 58 62 66 73
19 19 21 22 22 22 21 20 20 22 23 25 27 29 30 30 29 28 27 27 28 28 29 31 32 33 34 35 38 40 42 44 46 47 49 49 50 50 50 48 45 42 38 35 35 37 38 39 42 44 47 50 52 54 54 51 51 53 51 45 40 36 34 33 32 32 35 40 46 51 56 60 66 74
16 17 18 17 16 17 17 18 20 22 25 27 28 29 28 27 26 25 25 25 26 27 28 29 30 31 33 35 37 39 41 43 45 46 47 47 47 47 48 47 44 40 35 33 33 36 36 36 40 44 47 49 50 52 50 46 45 47 45 39 35 32 29 27 26 27 31 36 42 48 54 60 66 75
13 13 13 13 14 16 17 20 23 25 27 28 28 27 27 25 24 24 23 24 24 25 26 27 28 30 32 34 36 38 40 42 43 45 45 44 44 44 45 45 43 38 34 32 33 34 33 35 39 42 46 49 49 46 43 39 38 40 38 33 31 29 25 23 23 24 28 33 39 46 52 58 66 74
11 11 12 14 16 18 20 23 25 26 27 26 26 25 24 23 22 22 22 23 23 24 25 26 28 29 31 33 35 37 39 40 41 42 42 42 42 42 42 43 42 37 33 32 33 33 32 33 38 41 44 46 44 40 36 34 35 37 35 29 27 26 23 22 22 25 28 33 39 45 50 57 65 73
11 13 15 16 18 20 22 23 24 24 24 24 24 23 22 21 21 21 21 22 23 23 24 26 27 29 30 32 34 36 37 38 39 39 40 40 39 39 39 41 40 36 33 32 33 33 31 33 37 40 41 41 40 38 36 35 36 36 32 26 23 22 21 20 22 25 29 33 39 45 49 56 64 73
12 14 16 17 18 20 20 21 21 22 22 23 22 21 21 20 20 20 20 21 22 23 24 26 27 28 30 32 34 35 36 38 38 38 38 37 36 36 36 37 36 34 33 33 35 35 31 31 35 39 38 36 37 37 36 36 36 33 29 23 19 17 16 17 20 24 28 32 38 44 49 55 63 74
13 15 16 17 17 18 18 19 20 21 21 21 20 20 20 20 19 19 20 21 22 23 24 25 26 28 31 33 34 35 37 38 38 38 37 36 35 34 34 34 32 30 30 32 35 36 33 30 32 36 36 35 35 34 34 36 35 32 26 21 16 13 11 12 16 20 25 31 37 42 47 53 61 72
13 13 14 14 15 16 18 19 19 20 20 20 20 20 19 18 18 19 20 21 21 23 24 25 27 29 31 33 34 36 38 38 38 37 36 35 34 32 32 33 31 27 26 28 31 34 34 31 31 33 34 34 32 30 31 34 34 30 25 19 14 9 5 6 11 16 23 30 36 40 45 51 57 68
10 11 13 14 15 15 16 17 18 18 18 19 19 19 18 17 18 19 20 20 22 22 24 25 27 29 31 33 34 36 39 39 39 37 36 34 33 32 31 31 31 27 25 25 27 30 30 30 32 33 34 33 31 28 30 33 33 29 24 19 12 7 2 4 10 17 23 29 35 39 42 47 53 63
10 11 12 12 13 14 15 16 17 18 18 18 18 17 17 17 18 19 20 21 22 23 24 26 27 29 31 33 34 36 38 39 38 37 35 34 33 31 30 30 30 27 24 23 25 27 26 26 28 31 32 33 32 30 30 32 32 28 23 17 11 6 4 7 13 19 25 29 33 37 40 44 48 56
8 9 9 10 11 13 14 15 17 17 18 18 17 17 17 17 18 19 20 21 22 23 24 26 28 29 31 32 34 36 38 38 37 36 35 33 32 31 30 30 30 28 24 22 23 25 25 24 25 27 28 30 32 31 28 28 30 29 23 15 9 7 9 12 15 20 25 29 33 35 38 41 44 49
7 8 9 11 12 14 15 15 16 17 17 17 16 16 17 17 18 19 20 21 22 23 25 26 28 30 31 32 34 36 37 37 36 34 33 32 31 30 29 29 29 29 27 23 22 23 24 23 23 24 24 25 28 30 27 26 28 27 20 13 8 9 12 15 19 23 27 30 33 36 37 39 41 44
7 9 10 12 13 14 14 14 14 15 15 15 16 16 17 18 19 20 21 22 23 24 25 27 28 29 31 33 34 36 37 37 36 34 32 31 30 29 28 27 28 28 28 25 22 21 23 23 21 21 22 22 24 26 25 23 24 23 17 10 7 10 15 19 23 27 30 31 34 35 36 38 39 42
6 7 8 9 10 10 11 11 12 13 14 15 16 16 17 19 20 21 22 22 23 24 25 27 28 30 31 33 34 35 36 37 35 33 32 30 29 28 27 26 26 26 27 26 23 21 21 23 21 20 20 20 21 22 20 18 19 19 14 7 6 11 17 22 25 29 31 33 34 35 36 37 38 39
4 4 4 5 6 7 9 10 12 13 14 15 16 17 18 20 21 22 23 23 24 25 26 27 29 31 32 33 34 35 36 36 34 33 31 29 28 27 26 26 25 24 24 25 24 21 20 20 20 19 18 18 18 18 17 16 17 18 14 6 6 11 17 22 26 29 31 32 34 34 35 35 37 38
3 2 2 4 6 7 9 11 13 14 15 16 17 18 19 21 22 23 23 24 25 26 27 28 30 31 32 33 34 35 35 35 34 32 31 29 28 27 26 26 25 24 23 23 23 22 20 19 18 18 16 14 14 14 15 15 15 15 11 5 5 11 16 21 25 27 29 30 31 32 32 33 35 37
1 1 2 3 5 6 8 9 11 12 14 15 17 18 20 21 23 23 24 25 26 27 28 29 30 32 33 34 34 35 36 36 34 32 30 29 28 27 26 25 25 25 24 22 21 21 21 19 18 18 15 12 12 12 12 12 11 9 7 3 3 10 16 21 24 26 28 29 30 31 32 32 33 35
1 2 3 5 6 7 8 9 10 11 13 14 16 18 20 22 23 24 25 26 27 28 29 30 32 33 33 34 35 36 36 35 33 31 29 28 28 28 27 26 25 25 25 23 21 19 19 18 18 18 16 13 12 11 10 9 8 8 8 4 4 11 15 20 23 25 27 29 29 30 32 32 33 34
3 4 6 8 9 10 10 11 11 12 13 14 16 18 20 22 23 25 26 27 27 29 30 31 32 33 34 34 35 36 36 35 33 31 29 28 28 27 27 26 25 24 24 24 23 21 19 17 17 18 17 15 13 11 10 9 7 6 7 5 5 11 15 19 23 24 26 28 29 30 31 33 33 33
5 7 9 11 12 13 13 12 13 13 13 15 17 18 20 22 23 25 26 27 28 30 31 32 33 34 34 35 35 36 37 35 33 31 30 29 28 28 28 27 26 25 24 23 23 23 21 19 17 17 17 16 14 12 11 9 7 6 7 5 6 11 16 19 22 24 25 27 29 30 31 32 33 33
Wind_Direction
259 259 258 258 259 259 259 259 260 259 258 257 256 254 251 249 249 250 251 252 254 254 254 256 258 260 262 263 266 269 271 273 275 277 279 280 281 282 283 285 285 285 285 284 282 281 279 279 279 278 278 278 279 279 279 278 277 277 277 277 278 278 278 277 275 272 269 266 262 257 252 247 243 240
256 256 257 257 257 258 259 259 259 259 258 257 256 254 252 250 250 250 251 251 253 255 255 256 258 260 261 264 266 269 271 274 276 278 280 281 282 283 285 286 287 287 286 284 282 281 280 280 281 281 281 282 282 282 281 281 281 281 281 282 282 281 280 278 275 271 268 265 262 257 252 246 241 238
254 253 256 257 258 258 258 258 258 258 258 258 257 256 253 250 249 251 251 251 252 255 256 258 260 261 262 264 267 270 272 275 277 279 280 282 283 284 285 287 287 287 286 284 283 282 282 283 283 284 284 285 284 284 284 284 285 285 285 285 284 282 280 277 273 269 265 261 259 256 251 246 241 237
253 254 256 257 257 257 257 257 257 257 257 257 257 256 255 252 251 252 254 254 255 256 258 261 263 264 265 267 269 271 273 276 278 279 281 282 284 285 286 287 288 287 286 285 284 284 285 286 287 287 287 287 286 286 287 287 287 288 287 286 284 281 278 274 270 267 262 257 256 254 251 246 241 237
253 255 256 255 255 255 255 254 254 254 255 256 256 256 256 255 254 255 257 258 258 258 260 262 264 265 267 269 271 272 274 276 278 280 282 283 284 285 286 288 288 288 287 286 286 287 288 289 290 289 288 288 288 288 289 289 289 289 287 285 282 278 274 271 268 265 260 254 253 253 251 246 242 238
253 253 253 252 251 251 252 252 251 251 252 254 256 256 256 256 256 256 257 258 258 259 260 262 264 267 268 269 271 273 274 276 278 281 282 283 283 285 287 288 289 288 288 287 288 289 290 291 291 290 289 289 290 290 291 290 289 288 285 282 278 273 271 270 268 265 260 256 253 253 251 246 242 237
251 252 252 250 248 247 248 249 248 249 249 251 254 255 256 256 257 257 258 258 259 260 262 264 266 269 270 271 271 273 275 277 279 281 282 282 284 285 287 288 288 288 288 289 290 291 291 291 291 290 290 291 291 292 292 290 289 286 283 278 273 269 269 270 270 267 263 259 255 253 253 248 241 237
248 249 250 249 246 244 244 246 247 249 250 249 251 253 255 256 257 258 259 261 262 263 264 266 269 271 271 272 273 274 276 277 279 280 281 282 284 286 288 288 288 289 290 291 291 292 292 291 291 291 292 292 293 293 292 289 287 283 278 273 270 270 270 271 271 269 265 263 259 255 254 250 242 236
246 247 247 247 246 243 242 243 247 249 251 250 249 251 253 256 257 259 260 262 264 265 267 268 270 272 273 274 275 276 276 277 278 279 281 283 285 287 287 288 289 289 290 291 291 291 291 291 292 292 293 294 294 292 291 288 284 279 274 272 272 273 273 273 273 271 268 265 261 257 255 252 244 237
245 244 244 245 246 245 243 244 246 248 249 250 250 250 252 255 258 260 262 265 267 268 269 270 271 272 274 275 276 276 276 276 277 279 282 284 286 287 287 288 289 290 290 291 291 291 292 292 293 294 294 294 294 292 289 285 279 276 275 276 277 278 278 277 275 274 272 269 264 259 255 253 247 238
244 244 242 242 244 244 244 244 245 246 247 249 251 251 252 254 257 260 264 266 268 268 268 269 270 271 273 275 275 275 275 276 278 280 282 284 286 287 288 289 290 290 291 291 291 292 292 293 294 295 295 295 293 290 286 281 278 279 281 282 282 282 281 280 277 276 275 272 268 261 255 253 248 240
242 243 242 241 241 242 242 243 244 246 248 250 251 253 254 256 258 261 264 265 266 266 266 267 268 270 272 273 273 273 275 277 279 281 283 284 285 286 288 291 291 291 291 292 292 293 294 295 296 296 296 294 291 287 283 280 282 285 286 285 284 282 281 280 280 278 276 273 268 262 255 251 248 240
239 240 241 241 240 240 240 240 242 246 249 250 252 255 257 259 260 261 261 262 263 264 264 264 266 268 270 271 272 273 275 277 280 282 284 285 286 287 290 292 292 291 291 292 293 294 295 296 297 297 296 292 288 284 282 284 287 287 286 284 283 282 281 280 280 279 276 272 267 262 255 249 246 239
238 237 239 240 240 239 239 239 241 245 248 251 254 256 258 259 258 257 257 260 262 263 262 263 265 268 269 270 271 274 276 279 281 283 284 286 288 289 291 291 291 291 292 293 294 296 297 297 298 297 294 289 284 283 285 287 288 286 285 283 282 281 281 280 279 277 276 271 265 261 255 247 244 238
240 236 235 239 241 240 240 240 241 243 247 250 255 256 256 255 253 253 256 259 261 262 261 263 266 267 267 269 272 274 277 279 282 283 285 288 289 290 291 291 291 291 292 293 295 297 298 298 297 294 290 286 285 286 287 287 286 284 282 280 280 279 278 277 277 276 275 271 264 259 254 246 241 237
242 236 235 238 241 241 241 240 241 243 246 249 252 252 251 249 250 253 256 258 260 261 261 263 265 265 266 269 273 275 278 280 282 285 287 289 289 291 291 291 292 292 293 294 296 298 299 297 295 292 289 287 288 289 289 287 285 283 280 278 278 277 277 276 275 273 273 271 264 257 252 245 239 234
240 234 234 238 240 240 240 239 238 241 244 246 248 249 247 247 251 254 256 257 259 260 261 262 263 265 267 270 273 276 279 281 283 286 287 288 289 291 292 294 295 296 297 297 298 299 298 294 292 292 289 288 289 289 288 286 283 282 281 279 278 278 277 276 274 273 272 269 263 255 250 244 237 232
235 229 229 234 235 236 238 237 235 237 240 243 245 246 246 248 252 254 255 257 258 259 260 261 262 265 268 271 274 277 279 282 284 286 287 288 290 292 294 296 297 298 298 298 298 299 297 291 291 291 288 289 290 289 287 286 285 285 284 282 281 280 278 276 274 272 271 267 261 252 247 242 235 229
231 224 223 227 231 235 238 237 236 237 240 242 243 244 246 249 252 253 255 256 257 258 258 259 262 266 269 272 274 276 280 283 285 286 288 289 291 293 295 296 298 298 299 298 299 300 298 291 290 291 290 290 291 290 290 290 290 288 287 286 284 282 279 277 274 272 270 266 259 249 243 239 232 226
226 221 221 225 230 236 239 239 239 240 240 241 242 243 246 249 251 252 254 256 256 256 257 260 263 266 269 272 275 278 282 284 286 287 289 291 292 293 295 298 300 302 301 300 300 301 299 291 289 292 292 293 295 297 296 295 292 290 290 289 287 284 281 278 275 272 269 265 257 245 239 235 229 223
220 219 221 225 230 237 240 240 239 237 237 238 241 243 245 246 248 252 254 254 255 256 258 261 264 266 270 274 278 281 283 284 286 289 290 292 294 295 298 301 303 304 302 300 300 300 297 292 292 295 296 299 303 302 298 295 293 293 293 291 289 286 283 279 274 270 266 261 253 241 235 232 226 219
214 217 221 225 229 233 235 234 234 234 235 238 239 241 242 244 248 252 253 254 255 256 258 261 265 269 273 278 281 282 284 286 288 290 291 294 296 299 301 303 304 304 301 299 298 297 295 295 297 298 300 304 308 304 299 297 297 297 296 295 292 289 284 277 271 265 260 255 247 236 231 228 222 215
212 216 219 222 225 229 231 231 231 233 234 235 236 238 242 247 250 252 253 253 254 256 259 263 268 273 277 280 281 283 285 288 290 291 293 297 299 302 304 305 305 304 301 298 295 294 296 299 301 302 304 308 310 305 302 301 301 300 300 299 296 290 283 277 269 261 256 249 240 231 227 225 218 212
208 208 212 218 222 225 226 225 226 228 230 232 236 242 247 250 251 252 251 252 253 257 262 267 272 276 279 280 282 285 287 289 291 294 297 300 302 304 306 307 307 306 302 297 294 295 300 303 303 303 306 310 312 308 306 306 305 304 303 301 297 289 282 276 269 260 253 242 232 227 224 221 215 209
199 201 208 214 216 217 218 220 224 230 236 241 247 252 253 251 249 248 248 251 255 260 266 271 275 277 279 281 285 288 290 293 296 299 302 304 305 307 308 309 310 308 302 297 295 299 304 304 303 304 308 313 315 313 312 310 308 306 305 301 296 290 282 276 266 257 248 236 228 225 222 217 211 206
195 200 204 206 208 211 217 225 236 245 251 254 256 255 252 247 243 243 247 252 258 264 270 274 275 278 281 285 288 291 294 298 301 303 305 307 308 309 309 310 311 308 301 294 296 302 306 306 305 309 313 316 317 316 315 313 308 307 307 302 296 291 284 275 263 253 242 233 227 223 219 215 208 203
194 198 200 203 209 218 228 240 249 254 255 255 253 248 242 239 239 244 249 255 261 267 271 273 276 280 285 288 292 296 299 302 304 306 308 310 311 310 310 310 311 309 300 294 298 306 310 309 310 314 317 319 319 318 316 312 307 307 309 305 299 293 285 274 261 248 237 229 224 220 216 211 205 200
192 199 206 216 226 235 244 250 251 251 249 246 241 236 235 237 241 246 251 257 264 268 270 273 278 283 287 292 296 300 303 305 307 309 311 312 311 310 310 311 312 309 302 299 304 311 313 312 314 318 320 322 323 322 318 316 314 313 313 309 301 293 284 271 255 240 229 223 219 216 213 208 202 198
197 211 222 230 236 241 245 245 244 243 240 235 230 230 234 238 242 246 253 260 264 267 270 275 281 285 290 296 299 302 305 308 311 312 312 312 311 310 312 314 314 310 305 305 311 316 317 316 318 321 325 327 329 329 328 331 331 326 320 312 301 291 279 265 249 234 223 217 213 211 209 204 199 196
211 221 228 233 237 239 239 239 237 234 229 226 226 230 234 237 242 249 257 261 264 267 272 278 283 289 294 298 301 304 308 311 313 313 312 312 312 312 315 317 315 310 307 309 314 318 320 320 320 324 329 332 333 334 336 341 342 335 325 315 303 291 278 263 248 233 223 215 210 207 203 199 196 194
227 230 232 235 236 235 234 231 228 224 223 224 227 230 233 237 244 252 258 261 264 269 274 280 287 292 297 300 303 308 312 314 315 314 313 313 313 312 315 319 316 309 306 311 316 319 322 323 323 327 331 333 333 335 339 343 345 341 332 322 311 296 280 261 245 231 221 212 206 202 198 195 194 192
239 237 235 234 232 230 226 222 221 222 224 225 226 229 233 239 246 253 258 262 266 271 277 283 290 295 299 303 307 312 316 316 316 316 315 314 314 313 315 319 317 308 304 309 316 320 322 325 327 330 333 333 332 335 341 347 349 347 341 335 325 307 282 256 238 226 215 206 200 197 194 192 191 191
241 236 232 229 227 226 223 221 222 223 223 224 227 231 237 243 249 255 260 263 268 274 280 286 292 297 301 306 311 315 318 318 318 318 317 316 316 314 315 319 319 309 301 305 313 318 321 324 328 333 336 335 333 335 343 350 354 354 352 349 342 330 298 245 221 209 202 196 192 191 190 189 189 190
228 226 226 225 225 224 222 221 221 222 224 228 233 236 240 246 253 258 262 265 271 277 283 289 294 299 303 309 314 317 319 319 320 320 318 316 315 314 315 319 321 314 302 301 310 318 320 322 325 331 336 338 338 340 345 352 358 1 1 359 360 4 14 183 185 185 185 185 185 185 185 186 187 190
214 219 222 223 224 224 224 225 226 228 233 236 238 240 245 250 256 259 263 268 274 280 286 292 297 301 305 310 314 317 319 320 321 320 319 316 315 315 315 318 321 318 305 299 307 317 321 321 322 327 332 337 341 345 348 353 0 6 7 9 19 43 103 147 163 171 174 176 177 178 179 181 185 189
214 220 223 226 229 231 233 236 237 238 240 240 240 244 250 254 258 261 266 272 277 283 289 294 298 302 307 311 314 316 318 321 321 320 318 316 315 316 316 317 321 322 313 302 303 314 321 321 320 325 330 335 341 347 351 355 2 7 10 16 36 78 119 141 155 163 166 168 169 171 173 176 181 187
219 226 231 235 239 242 245 247 245 243 241 240 243 250 255 257 261 264 268 274 279 285 291 296 300 304 308 311 313 315 318 320 321 320 318 316 315 316 316 317 321 323 320 310 302 309 320 323 320 323 330 335 341 347 351 358 4 7 9 19 52 101 125 139 150 156 158 161 164 166 170 173 178 185
225 232 238 243 248 251 252 251 247 244 244 247 252 258 259 260 264 267 270 275 280 286 293 298 302 306 309 311 314 316 317 319 320 320 318 316 314 315 315 316 318 321 321 316 306 305 316 323 322 323 330 336 342 347 350 356 3 6 9 25 74 118 134 142 150 153 156 159 162 165 170 174 178 183
225 232 239 245 250 253 254 253 251 252 255 258 262 264 264 265 267 269 272 277 283 288 294 299 303 307 309 311 313 316 317 319 320 319 318 316 314 313 313 313 315 318 320 319 312 305 310 319 323 326 330 334 340 347 351 355 2 9 14 36 98 130 142 149 153 155 158 161 164 167 171 175 179 183
194 206 224 240 251 257 260 262 263 264 267 269 270 270 269 269 271 273 275 280 284 289 294 300 303 307 309 310 312 314 316 318 319 318 317 315 313 312 312 311 312 314 317 320 317 307 303 311 320 325 326 328 333 344 351 354 2 12 18 38 120 142 151 155 157 160 162 164 167 170 173 176 180 183
153 181 235 258 266 270 271 273 274 275 276 276 275 274 273 274 275 276 279 282 286 290 295 300 303 306 308 309 311 313 316 317 318 318 317 315 314 313 312 311 310 311 314 319 320 313 303 303 312 318 319 318 323 333 343 350 2 15 19 28 129 152 159 161 162 165 167 168 170 173 175 178 181 184
140 270 292 293 297 297 294 291 290 287 285 284 281 280 279 279 280 281 283 285 288 291 296 300 303 305 307 308 310 312 315 316 317 317 316 316 315 314 313 311 310 310 311 313 316 314 306 298 301 309 312 308 308 316 328 340 353 2 357 350 154 163 167 168 168 169 171 172 173 174 177 180 183 185
85 28 2 350 340 331 320 312 307 302 298 294 290 287 286 285 284 285 286 287 290 293 297 301 303 305 307 308 309 311 313 315 315 315 315 314 314 313 313 311 309 308 307 307 309 312 308 298 292 298 305 305 301 301 309 322 332 334 330 322 188 177 175 174 174 175 175 175 176 177 177 180 183 186
42 9 352 341 334 328 321 314 309 305 302 299 295 291 289 288 287 287 288 289 292 295 298 301 304 305 306 307 308 310 312 313 313 313 313 313 312 312 311 309 307 304 304 305 305 307 309 302 291 287 293 300 300 296 296 301 306 309 313 302 207 190 186 181 179 180 179 179 180 181 180 180 182 185
349 337 332 328 324 322 318 312 307 304 301 298 296 294 293 292 291 291 291 293 295 297 300 302 303 304 305 306 307 308 310 311 310 310 310 310 310 310 308 307 305 302 300 300 301 302 304 304 297 286 282 286 292 291 288 286 282 280 286 277 214 195 193 189 184 183 184 184 184 184 184 183 183 184